Year,Month,Day,Hour,Minute,Value (Times are PST for temperature in C)
2009,08,03,00,00,17.30
2009,08,03,00,01,17.30
2009,08,03,00,02,17.20
2009,08,03,00,03,17.20
2009,08,03,00,04,17.10
2009,08,03,00,05,17.10
2009,08,03,00,06,17.00
2009,08,03,00,07,17.00
2009,08,03,00,08,16.90
2009,08,03,00,09,16.90
2009,08,03,00,10,16.90
2009,08,03,00,11,16.90
2009,08,03,00,12,16.80
2009,08,03,00,13,16.80
2009,08,03,00,14,16.80
2009,08,03,00,15,16.80
2009,08,03,00,16,16.80
2009,08,03,00,17,16.80
2009,08,03,00,18,16.80
2009,08,03,00,19,16.80
2009,08,03,00,20,16.80
2009,08,03,00,21,16.80
2009,08,03,00,22,16.80
2009,08,03,00,23,16.80
2009,08,03,00,24,16.80
2009,08,03,00,25,16.80
2009,08,03,00,26,16.80
2009,08,03,00,27,16.80
2009,08,03,00,28,16.80
2009,08,03,00,29,16.80
2009,08,03,00,30,16.80
2009,08,03,00,31,16.70
2009,08,03,00,32,16.70
2009,08,03,00,33,16.70
2009,08,03,00,34,16.70
2009,08,03,00,35,16.70
2009,08,03,00,36,16.70
2009,08,03,00,37,16.70
2009,08,03,00,38,16.80
2009,08,03,00,39,16.80
2009,08,03,00,40,16.80
2009,08,03,00,41,16.80
2009,08,03,00,42,16.90
2009,08,03,00,43,16.90
2009,08,03,00,44,16.90
2009,08,03,00,45,16.90
2009,08,03,00,46,16.90
2009,08,03,00,47,16.90
2009,08,03,00,48,16.90
2009,08,03,00,49,16.90
2009,08,03,00,50,16.80
2009,08,03,00,51,16.80
2009,08,03,00,52,16.80
2009,08,03,00,53,16.70
2009,08,03,00,54,16.70
2009,08,03,00,55,16.70
2009,08,03,00,56,16.70
2009,08,03,00,57,16.70
2009,08,03,00,58,16.70
2009,08,03,00,59,16.70
2009,08,03,01,00,16.70
2009,08,03,01,01,16.60
2009,08,03,01,02,16.60
2009,08,03,01,03,16.60
2009,08,03,01,04,16.50
2009,08,03,01,05,16.50
2009,08,03,01,06,16.50
2009,08,03,01,07,16.40
2009,08,03,01,08,16.40
2009,08,03,01,09,16.40
2009,08,03,01,10,16.30
2009,08,03,01,11,16.30
2009,08,03,01,12,16.30
2009,08,03,01,13,16.20
2009,08,03,01,14,16.20
2009,08,03,01,15,16.20
2009,08,03,01,16,16.20
2009,08,03,01,17,16.10
2009,08,03,01,18,16.10
2009,08,03,01,19,16.10
2009,08,03,01,20,16.10
2009,08,03,01,21,16.00
2009,08,03,01,22,16.00
2009,08,03,01,23,16.00
2009,08,03,01,24,16.00
2009,08,03,01,25,16.00
2009,08,03,01,26,16.00
2009,08,03,01,27,16.00
2009,08,03,01,28,16.00
2009,08,03,01,29,16.00
2009,08,03,01,30,16.00
2009,08,03,01,31,16.10
2009,08,03,01,32,16.10
2009,08,03,01,33,16.10
2009,08,03,01,34,16.10
2009,08,03,01,35,16.10
2009,08,03,01,36,16.10
2009,08,03,01,37,16.10
2009,08,03,01,38,16.10
2009,08,03,01,39,16.10
2009,08,03,01,40,16.10
2009,08,03,01,41,16.10
2009,08,03,01,42,16.10
2009,08,03,01,43,16.00
2009,08,03,01,44,16.00
2009,08,03,01,45,16.00
2009,08,03,01,46,15.90
2009,08,03,01,47,15.90
2009,08,03,01,48,15.90
2009,08,03,01,49,15.90
2009,08,03,01,50,15.80
2009,08,03,01,51,15.80
2009,08,03,01,52,15.80
2009,08,03,01,53,15.80
2009,08,03,01,54,15.80
2009,08,03,01,55,15.80
2009,08,03,01,56,15.80
2009,08,03,01,57,15.80
2009,08,03,01,58,15.80
2009,08,03,01,59,15.80
2009,08,03,02,00,15.70
2009,08,03,02,01,15.70
2009,08,03,02,02,15.70
2009,08,03,02,03,15.70
2009,08,03,02,04,15.70
2009,08,03,02,05,15.70
2009,08,03,02,06,15.60
2009,08,03,02,07,15.60
2009,08,03,02,08,15.50
2009,08,03,02,09,15.40
2009,08,03,02,10,15.40
2009,08,03,02,11,15.30
2009,08,03,02,12,15.20
2009,08,03,02,13,15.20
2009,08,03,02,14,15.20
2009,08,03,02,15,15.10
2009,08,03,02,16,15.10
2009,08,03,02,17,15.10
2009,08,03,02,18,15.10
2009,08,03,02,19,15.10
2009,08,03,02,20,15.10
2009,08,03,02,21,15.10
2009,08,03,02,22,15.20
2009,08,03,02,23,15.20
2009,08,03,02,24,15.20
2009,08,03,02,25,15.20
2009,08,03,02,26,15.20
2009,08,03,02,27,15.20
2009,08,03,02,28,15.20
2009,08,03,02,29,15.20
2009,08,03,02,30,15.20
2009,08,03,02,31,15.20
2009,08,03,02,32,15.20
2009,08,03,02,33,15.20
2009,08,03,02,34,15.20
2009,08,03,02,35,15.10
2009,08,03,02,36,15.10
2009,08,03,02,37,15.10
2009,08,03,02,38,15.00
2009,08,03,02,39,15.00
2009,08,03,02,40,15.00
2009,08,03,02,41,15.00
2009,08,03,02,42,15.00
2009,08,03,02,43,15.00
2009,08,03,02,44,15.00
2009,08,03,02,45,15.00
2009,08,03,02,46,15.00
2009,08,03,02,47,15.00
2009,08,03,02,48,15.00
2009,08,03,02,49,15.00
2009,08,03,02,50,15.00
2009,08,03,02,51,15.00
2009,08,03,02,52,15.00
2009,08,03,02,53,14.90
2009,08,03,02,54,14.90
2009,08,03,02,55,14.90
2009,08,03,02,56,14.80
2009,08,03,02,57,14.80
2009,08,03,02,58,14.80
2009,08,03,02,59,14.80
2009,08,03,03,00,14.80
2009,08,03,03,01,14.80
2009,08,03,03,02,14.80
2009,08,03,03,03,14.80
2009,08,03,03,04,14.70
2009,08,03,03,05,14.70
2009,08,03,03,06,14.70
2009,08,03,03,07,14.70
2009,08,03,03,08,14.70
2009,08,03,03,09,14.60
2009,08,03,03,10,14.60
2009,08,03,03,11,14.60
2009,08,03,03,12,14.60
2009,08,03,03,13,14.60
2009,08,03,03,14,14.60
2009,08,03,03,15,14.50
2009,08,03,03,16,14.50
2009,08,03,03,17,14.50
2009,08,03,03,18,14.50
2009,08,03,03,19,14.60
2009,08,03,03,20,14.50
2009,08,03,03,21,14.50
2009,08,03,03,22,14.50
2009,08,03,03,23,14.50
2009,08,03,03,24,14.50
2009,08,03,03,25,14.40
2009,08,03,03,26,14.40
2009,08,03,03,27,14.40
2009,08,03,03,28,14.40
2009,08,03,03,29,14.30
2009,08,03,03,30,14.30
2009,08,03,03,31,14.20
2009,08,03,03,32,14.20
2009,08,03,03,33,14.20
2009,08,03,03,34,14.10
2009,08,03,03,35,14.10
2009,08,03,03,36,14.10
2009,08,03,03,37,14.00
2009,08,03,03,38,14.00
2009,08,03,03,39,14.00
2009,08,03,03,40,14.00
2009,08,03,03,41,14.00
2009,08,03,03,42,14.00
2009,08,03,03,43,13.90
2009,08,03,03,44,13.90
2009,08,03,03,45,13.90
2009,08,03,03,46,13.90
2009,08,03,03,47,13.90
2009,08,03,03,48,13.90
2009,08,03,03,49,13.90
2009,08,03,03,50,13.90
2009,08,03,03,51,13.90
2009,08,03,03,52,13.90
2009,08,03,03,53,13.90
2009,08,03,03,54,13.90
2009,08,03,03,55,13.90
2009,08,03,03,56,13.90
2009,08,03,03,57,13.90
2009,08,03,03,58,13.90
2009,08,03,03,59,13.90
2009,08,03,04,00,13.90
2009,08,03,04,01,13.80
2009,08,03,04,02,13.80
2009,08,03,04,03,13.80
2009,08,03,04,04,13.80
2009,08,03,04,05,13.80
2009,08,03,04,06,13.80
2009,08,03,04,07,13.70
2009,08,03,04,08,13.70
2009,08,03,04,09,13.70
2009,08,03,04,10,13.70
2009,08,03,04,11,13.70
2009,08,03,04,12,13.70
2009,08,03,04,13,13.70
2009,08,03,04,14,13.70
2009,08,03,04,15,13.60
2009,08,03,04,16,13.60
2009,08,03,04,17,13.60
2009,08,03,04,18,13.50
2009,08,03,04,19,13.50
2009,08,03,04,20,13.40
2009,08,03,04,21,13.40
2009,08,03,04,22,13.30
2009,08,03,04,23,13.30
2009,08,03,04,24,13.30
2009,08,03,04,25,13.30
2009,08,03,04,26,13.30
2009,08,03,04,27,13.20
2009,08,03,04,28,13.20
2009,08,03,04,29,13.20
2009,08,03,04,30,13.20
2009,08,03,04,31,13.20
2009,08,03,04,32,13.20
2009,08,03,04,33,13.20
2009,08,03,04,34,13.10
2009,08,03,04,35,13.10
2009,08,03,04,36,13.10
2009,08,03,04,37,13.10
2009,08,03,04,38,13.10
2009,08,03,04,39,13.10
2009,08,03,04,40,13.10
2009,08,03,04,41,13.10
2009,08,03,04,42,13.10
2009,08,03,04,43,13.10
2009,08,03,04,44,13.10
2009,08,03,04,45,13.10
2009,08,03,04,46,13.10
2009,08,03,04,47,13.10
2009,08,03,04,48,13.10
2009,08,03,04,49,13.10
2009,08,03,04,50,13.10
2009,08,03,04,51,13.10
2009,08,03,04,52,13.10
2009,08,03,04,53,13.10
2009,08,03,04,54,13.10
2009,08,03,04,55,13.10
2009,08,03,04,56,13.00
2009,08,03,04,57,13.00
2009,08,03,04,58,13.00
2009,08,03,04,59,12.90
2009,08,03,05,00,12.90
2009,08,03,05,01,12.90
2009,08,03,05,02,12.90
2009,08,03,05,03,12.80
2009,08,03,05,04,12.80
2009,08,03,05,05,12.80
2009,08,03,05,06,12.80
2009,08,03,05,07,12.90
2009,08,03,05,08,12.90
2009,08,03,05,09,12.90
2009,08,03,05,10,12.90
2009,08,03,05,11,12.90
2009,08,03,05,12,12.90
2009,08,03,05,13,13.00
2009,08,03,05,14,13.00
2009,08,03,05,15,13.00
2009,08,03,05,16,13.00
2009,08,03,05,17,13.00
2009,08,03,05,18,13.00
2009,08,03,05,19,13.10
2009,08,03,05,20,13.10
2009,08,03,05,21,13.10
2009,08,03,05,22,13.00
2009,08,03,05,23,13.00
2009,08,03,05,24,13.00
2009,08,03,05,25,13.00
2009,08,03,05,26,12.90
2009,08,03,05,27,12.90
2009,08,03,05,28,12.90
2009,08,03,05,29,12.80
2009,08,03,05,30,12.80
2009,08,03,05,31,12.80
2009,08,03,05,32,12.80
2009,08,03,05,33,12.80
2009,08,03,05,34,12.80
2009,08,03,05,35,12.70
2009,08,03,05,36,12.70
2009,08,03,05,37,12.70
2009,08,03,05,38,12.70
2009,08,03,05,39,12.70
2009,08,03,05,40,12.70
2009,08,03,05,41,12.70
2009,08,03,05,42,12.70
2009,08,03,05,43,12.70
2009,08,03,05,44,12.70
2009,08,03,05,45,12.70
2009,08,03,05,46,12.70
2009,08,03,05,47,12.60
2009,08,03,05,48,12.60
2009,08,03,05,49,12.60
2009,08,03,05,50,12.60
2009,08,03,05,51,12.50
2009,08,03,05,52,12.50
2009,08,03,05,53,12.50
2009,08,03,05,54,12.40
2009,08,03,05,55,12.40
2009,08,03,05,56,12.40
2009,08,03,05,57,12.40
2009,08,03,05,58,12.40
2009,08,03,05,59,12.40
2009,08,03,06,00,12.30
2009,08,03,06,01,12.30
2009,08,03,06,02,12.30
2009,08,03,06,03,12.30
2009,08,03,06,04,12.30
2009,08,03,06,05,12.20
2009,08,03,06,06,12.20
2009,08,03,06,07,12.20
2009,08,03,06,08,12.20
2009,08,03,06,09,12.10
2009,08,03,06,10,12.10
2009,08,03,06,11,12.10
2009,08,03,06,12,12.10
2009,08,03,06,13,12.00
2009,08,03,06,14,12.00
2009,08,03,06,15,12.00
2009,08,03,06,16,11.90
2009,08,03,06,17,11.90
2009,08,03,06,18,11.90
2009,08,03,06,19,11.90
2009,08,03,06,20,12.00
2009,08,03,06,21,12.00
2009,08,03,06,22,12.00
2009,08,03,06,23,12.10
2009,08,03,06,24,12.10
2009,08,03,06,25,12.20
2009,08,03,06,26,12.20
2009,08,03,06,27,12.30
2009,08,03,06,28,12.30
2009,08,03,06,29,12.40
2009,08,03,06,30,12.40
2009,08,03,06,31,12.40
2009,08,03,06,32,12.50
2009,08,03,06,33,12.50
2009,08,03,06,34,12.40
2009,08,03,06,35,12.40
2009,08,03,06,36,12.40
2009,08,03,06,37,12.40
2009,08,03,06,38,12.40
2009,08,03,06,39,12.40
2009,08,03,06,40,12.40
2009,08,03,06,41,12.40
2009,08,03,06,42,12.50
2009,08,03,06,43,12.50
2009,08,03,06,44,12.60
2009,08,03,06,45,12.60
2009,08,03,06,46,12.70
2009,08,03,06,47,12.70
2009,08,03,06,48,12.80
2009,08,03,06,49,12.80
2009,08,03,06,50,12.90
2009,08,03,06,51,12.90
2009,08,03,06,52,12.90
2009,08,03,06,53,12.90
2009,08,03,06,54,12.90
2009,08,03,06,55,13.00
2009,08,03,06,56,13.00
2009,08,03,06,57,13.10
2009,08,03,06,58,13.10
2009,08,03,06,59,13.10
2009,08,03,07,00,13.20
2009,08,03,07,01,13.30
2009,08,03,07,02,13.30
2009,08,03,07,03,13.40
2009,08,03,07,04,13.40
2009,08,03,07,05,13.50
2009,08,03,07,06,13.60
2009,08,03,07,07,13.80
2009,08,03,07,08,13.90
2009,08,03,07,09,14.00
2009,08,03,07,10,14.20
2009,08,03,07,11,14.30
2009,08,03,07,12,14.50
2009,08,03,07,13,14.60
2009,08,03,07,14,14.70
2009,08,03,07,15,14.90
2009,08,03,07,16,15.00
2009,08,03,07,17,15.00
2009,08,03,07,18,15.00
2009,08,03,07,19,15.00
2009,08,03,07,20,15.00
2009,08,03,07,21,15.00
2009,08,03,07,22,15.00
2009,08,03,07,23,15.00
2009,08,03,07,24,15.00
2009,08,03,07,25,15.10
2009,08,03,07,26,15.20
2009,08,03,07,27,15.30
2009,08,03,07,28,15.40
2009,08,03,07,29,15.60
2009,08,03,07,30,15.70
2009,08,03,07,31,15.80
2009,08,03,07,32,15.90
2009,08,03,07,33,16.00
2009,08,03,07,34,16.10
2009,08,03,07,35,16.10
2009,08,03,07,36,16.20
2009,08,03,07,37,16.20
2009,08,03,07,38,16.20
2009,08,03,07,39,16.20
2009,08,03,07,40,16.20
2009,08,03,07,41,16.30
2009,08,03,07,42,16.30
2009,08,03,07,43,16.30
2009,08,03,07,44,16.30
2009,08,03,07,45,16.30
2009,08,03,07,46,16.30
2009,08,03,07,47,16.20
2009,08,03,07,48,16.20
2009,08,03,07,49,16.20
2009,08,03,07,50,16.10
2009,08,03,07,51,16.10
2009,08,03,07,52,16.00
2009,08,03,07,53,15.90
2009,08,03,07,54,15.90
2009,08,03,07,55,15.90
2009,08,03,07,56,15.90
2009,08,03,07,57,15.90
2009,08,03,07,58,15.90
2009,08,03,07,59,16.00
2009,08,03,08,00,16.00
2009,08,03,08,01,16.10
2009,08,03,08,02,16.10
2009,08,03,08,03,16.10
2009,08,03,08,04,16.20
2009,08,03,08,05,16.20
2009,08,03,08,06,16.20
2009,08,03,08,07,16.30
2009,08,03,08,08,16.30
2009,08,03,08,09,16.40
2009,08,03,08,10,16.50
2009,08,03,08,11,16.60
2009,08,03,08,12,16.70
2009,08,03,08,13,16.70
2009,08,03,08,14,16.80
2009,08,03,08,15,16.90
2009,08,03,08,16,16.90
2009,08,03,08,17,17.00
2009,08,03,08,18,17.10
2009,08,03,08,19,17.10
2009,08,03,08,20,17.20
2009,08,03,08,21,17.20
2009,08,03,08,22,17.20
2009,08,03,08,23,17.20
2009,08,03,08,24,17.30
2009,08,03,08,25,17.40
2009,08,03,08,26,17.40
2009,08,03,08,27,17.40
2009,08,03,08,28,17.40
2009,08,03,08,29,17.40
2009,08,03,08,30,17.40
2009,08,03,08,31,17.40
2009,08,03,08,32,17.50
2009,08,03,08,33,17.50
2009,08,03,08,34,17.50
2009,08,03,08,35,17.50
2009,08,03,08,36,17.50
2009,08,03,08,37,17.60
2009,08,03,08,38,17.60
2009,08,03,08,39,17.60
2009,08,03,08,40,17.50
2009,08,03,08,41,17.50
2009,08,03,08,42,17.50
2009,08,03,08,43,17.40
2009,08,03,08,44,17.30
2009,08,03,08,45,17.30
2009,08,03,08,46,17.30
2009,08,03,08,47,17.40
2009,08,03,08,48,17.50
2009,08,03,08,49,17.60
2009,08,03,08,50,17.60
2009,08,03,08,51,17.60
2009,08,03,08,52,17.50
2009,08,03,08,53,17.50
2009,08,03,08,54,17.50
2009,08,03,08,55,17.50
2009,08,03,08,56,17.60
2009,08,03,08,57,17.70
2009,08,03,08,58,17.80
2009,08,03,08,59,17.80
2009,08,03,09,00,17.90
2009,08,03,09,01,18.00
2009,08,03,09,02,18.20
2009,08,03,09,03,18.30
2009,08,03,09,04,18.30
2009,08,03,09,05,18.50
2009,08,03,09,06,18.50
2009,08,03,09,07,18.60
2009,08,03,09,08,18.60
2009,08,03,09,09,18.70
2009,08,03,09,10,18.80
2009,08,03,09,11,18.90
2009,08,03,09,12,18.90
2009,08,03,09,13,18.90
2009,08,03,09,14,18.90
2009,08,03,09,15,18.90
2009,08,03,09,16,18.90
2009,08,03,09,17,18.80
2009,08,03,09,18,18.70
2009,08,03,09,19,18.60
2009,08,03,09,20,18.60
2009,08,03,09,21,18.50
2009,08,03,09,22,18.40
2009,08,03,09,23,18.40
2009,08,03,09,24,18.30
2009,08,03,09,25,18.30
2009,08,03,09,26,18.20
2009,08,03,09,27,18.10
2009,08,03,09,28,18.00
2009,08,03,09,29,17.90
2009,08,03,09,30,17.80
2009,08,03,09,31,17.80
2009,08,03,09,32,17.70
2009,08,03,09,33,17.70
2009,08,03,09,34,17.70
2009,08,03,09,35,17.70
2009,08,03,09,36,17.80
2009,08,03,09,37,17.80
2009,08,03,09,38,17.80
2009,08,03,09,39,17.80
2009,08,03,09,40,17.80
2009,08,03,09,41,17.80
2009,08,03,09,42,17.80
2009,08,03,09,43,17.80
2009,08,03,09,44,17.80
2009,08,03,09,45,17.90
2009,08,03,09,46,17.90
2009,08,03,09,47,18.00
2009,08,03,09,48,18.10
2009,08,03,09,49,18.10
2009,08,03,09,50,18.20
2009,08,03,09,51,18.30
2009,08,03,09,52,18.30
2009,08,03,09,53,18.30
2009,08,03,09,54,18.30
2009,08,03,09,55,18.30
2009,08,03,09,56,18.20
2009,08,03,09,57,18.20
2009,08,03,09,58,18.20
2009,08,03,09,59,18.20
2009,08,03,10,00,18.10
2009,08,03,10,01,18.00
2009,08,03,10,02,17.90
2009,08,03,10,03,18.00
2009,08,03,10,04,18.10
2009,08,03,10,05,18.10
2009,08,03,10,06,18.20
2009,08,03,10,07,18.30
2009,08,03,10,08,18.40
2009,08,03,10,09,18.40
2009,08,03,10,10,18.50
2009,08,03,10,11,18.50
2009,08,03,10,12,18.60
2009,08,03,10,13,18.60
2009,08,03,10,14,18.50
2009,08,03,10,15,18.50
2009,08,03,10,16,18.50
2009,08,03,10,17,18.50
2009,08,03,10,18,18.50
2009,08,03,10,19,18.50
2009,08,03,10,20,18.60
2009,08,03,10,21,18.60
2009,08,03,10,22,18.70
2009,08,03,10,23,18.80
2009,08,03,10,24,18.80
2009,08,03,10,25,18.80
2009,08,03,10,26,18.70
2009,08,03,10,27,18.70
2009,08,03,10,28,18.60
2009,08,03,10,29,18.60
2009,08,03,10,30,18.50
2009,08,03,10,31,18.50
2009,08,03,10,32,18.50
2009,08,03,10,33,18.50
2009,08,03,10,34,18.70
2009,08,03,10,35,18.90
2009,08,03,10,36,19.00
2009,08,03,10,37,19.10
2009,08,03,10,38,19.10
2009,08,03,10,39,19.10
2009,08,03,10,40,19.10
2009,08,03,10,41,19.00
2009,08,03,10,42,18.90
2009,08,03,10,43,18.90
2009,08,03,10,44,18.90
2009,08,03,10,45,18.90
2009,08,03,10,46,18.90
2009,08,03,10,47,19.00
2009,08,03,10,48,19.10
2009,08,03,10,49,19.20
2009,08,03,10,50,19.30
2009,08,03,10,51,19.30
2009,08,03,10,52,19.40
2009,08,03,10,53,19.50
2009,08,03,10,54,19.50
2009,08,03,10,55,19.60
2009,08,03,10,56,19.60
2009,08,03,10,57,19.60
2009,08,03,10,58,19.60
2009,08,03,10,59,19.60
2009,08,03,11,00,19.60
2009,08,03,11,01,19.60
2009,08,03,11,02,19.60
2009,08,03,11,03,19.60
2009,08,03,11,04,19.60
2009,08,03,11,05,19.50
2009,08,03,11,06,19.40
2009,08,03,11,07,19.30
2009,08,03,11,08,19.10
2009,08,03,11,09,19.00
2009,08,03,11,10,19.00
2009,08,03,11,11,18.90
2009,08,03,11,12,18.80
2009,08,03,11,13,18.70
2009,08,03,11,14,18.70
2009,08,03,11,15,18.80
2009,08,03,11,16,18.70
2009,08,03,11,17,18.70
2009,08,03,11,18,18.60
2009,08,03,11,19,18.60
2009,08,03,11,20,18.50
2009,08,03,11,21,18.40
2009,08,03,11,22,18.30
2009,08,03,11,23,18.20
2009,08,03,11,24,18.30
2009,08,03,11,25,18.50
2009,08,03,11,26,18.70
2009,08,03,11,27,18.90
2009,08,03,11,28,19.10
2009,08,03,11,29,19.20
2009,08,03,11,30,19.20
2009,08,03,11,31,19.20
2009,08,03,11,32,19.10
2009,08,03,11,33,19.10
2009,08,03,11,34,19.10
2009,08,03,11,35,19.10
2009,08,03,11,36,19.20
2009,08,03,11,37,19.20
2009,08,03,11,38,19.20
2009,08,03,11,39,19.20
2009,08,03,11,40,19.30
2009,08,03,11,41,19.30
2009,08,03,11,42,19.40
2009,08,03,11,43,19.50
2009,08,03,11,44,19.50
2009,08,03,11,45,19.60
2009,08,03,11,46,19.60
2009,08,03,11,47,19.60
2009,08,03,11,48,19.60
2009,08,03,11,49,19.60
2009,08,03,11,50,19.60
2009,08,03,11,51,19.60
2009,08,03,11,52,19.60
2009,08,03,11,53,19.70
2009,08,03,11,54,19.70
2009,08,03,11,55,19.60
2009,08,03,11,56,19.50
2009,08,03,11,57,19.40
2009,08,03,11,58,19.30
2009,08,03,11,59,19.40
2009,08,03,12,00,19.40
2009,08,03,12,01,19.60
2009,08,03,12,02,19.70
2009,08,03,12,03,19.90
2009,08,03,12,04,20.00
2009,08,03,12,05,20.20
2009,08,03,12,06,20.20
2009,08,03,12,07,20.30
2009,08,03,12,08,20.40
2009,08,03,12,09,20.40
2009,08,03,12,10,20.30
2009,08,03,12,11,20.30
2009,08,03,12,12,20.30
2009,08,03,12,13,20.30
2009,08,03,12,14,20.20
2009,08,03,12,15,20.20
2009,08,03,12,16,20.30
2009,08,03,12,17,20.30
2009,08,03,12,18,20.30
2009,08,03,12,19,20.20
2009,08,03,12,20,20.10
2009,08,03,12,21,20.10
2009,08,03,12,22,20.10
2009,08,03,12,23,20.20
2009,08,03,12,24,20.40
2009,08,03,12,25,20.50
2009,08,03,12,26,20.60
2009,08,03,12,27,20.70
2009,08,03,12,28,20.60
2009,08,03,12,29,20.60
2009,08,03,12,30,20.60
2009,08,03,12,31,20.50
2009,08,03,12,32,20.50
2009,08,03,12,33,20.40
2009,08,03,12,34,20.30
2009,08,03,12,35,20.40
2009,08,03,12,36,20.50
2009,08,03,12,37,20.60
2009,08,03,12,38,20.70
2009,08,03,12,39,20.70
2009,08,03,12,40,20.70
2009,08,03,12,41,20.70
2009,08,03,12,42,20.70
2009,08,03,12,43,20.80
2009,08,03,12,44,20.90
2009,08,03,12,45,20.90
2009,08,03,12,46,20.90
2009,08,03,12,47,21.00
2009,08,03,12,48,21.10
2009,08,03,12,49,21.10
2009,08,03,12,50,21.20
2009,08,03,12,51,21.20
2009,08,03,12,52,21.20
2009,08,03,12,53,21.20
2009,08,03,12,54,21.30
2009,08,03,12,55,21.30
2009,08,03,12,56,21.40
2009,08,03,12,57,21.50
2009,08,03,12,58,21.60
2009,08,03,12,59,21.60
2009,08,03,13,00,21.80
2009,08,03,13,01,21.80
2009,08,03,13,02,21.80
2009,08,03,13,03,21.80
2009,08,03,13,04,21.80
2009,08,03,13,05,21.80
2009,08,03,13,06,21.80
2009,08,03,13,07,21.80
2009,08,03,13,08,21.80
2009,08,03,13,09,21.80
2009,08,03,13,10,21.80
2009,08,03,13,11,21.90
2009,08,03,13,12,22.00
2009,08,03,13,13,22.00
2009,08,03,13,14,21.90
2009,08,03,13,15,21.80
2009,08,03,13,16,21.80
2009,08,03,13,17,21.80
2009,08,03,13,18,21.80
2009,08,03,13,19,21.80
2009,08,03,13,20,21.80
2009,08,03,13,21,21.80
2009,08,03,13,22,21.80
2009,08,03,13,23,21.80
2009,08,03,13,24,21.80
2009,08,03,13,25,21.70
2009,08,03,13,26,21.70
2009,08,03,13,27,21.80
2009,08,03,13,28,21.80
2009,08,03,13,29,21.90
2009,08,03,13,30,22.00
2009,08,03,13,31,22.00
2009,08,03,13,32,22.00
2009,08,03,13,33,22.00
2009,08,03,13,34,22.10
2009,08,03,13,35,22.00
2009,08,03,13,36,21.90
2009,08,03,13,37,21.90
2009,08,03,13,38,21.80
2009,08,03,13,39,21.90
2009,08,03,13,40,21.90
2009,08,03,13,41,21.90
2009,08,03,13,42,22.00
2009,08,03,13,43,22.10
2009,08,03,13,44,22.10
2009,08,03,13,45,22.10
2009,08,03,13,46,22.00
2009,08,03,13,47,21.90
2009,08,03,13,48,21.80
2009,08,03,13,49,21.90
2009,08,03,13,50,22.00
2009,08,03,13,51,22.10
2009,08,03,13,52,22.10
2009,08,03,13,53,22.10
2009,08,03,13,54,22.00
2009,08,03,13,55,21.90
2009,08,03,13,56,21.80
2009,08,03,13,57,21.80
2009,08,03,13,58,21.80
2009,08,03,13,59,21.80
2009,08,03,14,00,21.90
2009,08,03,14,01,22.00
2009,08,03,14,02,22.10
2009,08,03,14,03,22.10
2009,08,03,14,04,22.10
2009,08,03,14,05,22.10
2009,08,03,14,06,22.00
2009,08,03,14,07,21.90
2009,08,03,14,08,21.90
2009,08,03,14,09,21.80
2009,08,03,14,10,21.80
2009,08,03,14,11,21.80
2009,08,03,14,12,21.80
2009,08,03,14,13,21.80
2009,08,03,14,14,21.90
2009,08,03,14,15,21.90
2009,08,03,14,16,21.90
2009,08,03,14,17,22.00
2009,08,03,14,18,22.10
2009,08,03,14,19,22.20
2009,08,03,14,20,22.30
2009,08,03,14,21,22.30
2009,08,03,14,22,22.40
2009,08,03,14,23,22.50
2009,08,03,14,24,22.50
2009,08,03,14,25,22.40
2009,08,03,14,26,22.40
2009,08,03,14,27,22.50
2009,08,03,14,28,22.60
2009,08,03,14,29,22.60
2009,08,03,14,30,22.70
2009,08,03,14,31,22.80
2009,08,03,14,32,22.80
2009,08,03,14,33,22.90
2009,08,03,14,34,22.90
2009,08,03,14,35,22.90
2009,08,03,14,36,23.00
2009,08,03,14,37,23.00
2009,08,03,14,38,23.10
2009,08,03,14,39,23.20
2009,08,03,14,40,23.20
2009,08,03,14,41,23.20
2009,08,03,14,42,23.00
2009,08,03,14,43,22.90
2009,08,03,14,44,22.90
2009,08,03,14,45,23.00
2009,08,03,14,46,23.00
2009,08,03,14,47,23.00
2009,08,03,14,48,23.00
2009,08,03,14,49,23.10
2009,08,03,14,50,23.10
2009,08,03,14,51,23.10
2009,08,03,14,52,23.20
2009,08,03,14,53,23.30
2009,08,03,14,54,23.30
2009,08,03,14,55,23.30
2009,08,03,14,56,23.20
2009,08,03,14,57,23.30
2009,08,03,14,58,23.30
2009,08,03,14,59,23.30
2009,08,03,15,00,23.30
2009,08,03,15,01,23.30
2009,08,03,15,02,23.30
2009,08,03,15,03,23.20
2009,08,03,15,04,23.20
2009,08,03,15,05,23.20
2009,08,03,15,06,23.30
2009,08,03,15,07,23.30
2009,08,03,15,08,23.40
2009,08,03,15,09,23.50
2009,08,03,15,10,23.60
2009,08,03,15,11,23.60
2009,08,03,15,12,23.70
2009,08,03,15,13,23.70
2009,08,03,15,14,23.60
2009,08,03,15,15,23.60
2009,08,03,15,16,23.50
2009,08,03,15,17,23.50
2009,08,03,15,18,23.50
2009,08,03,15,19,23.60
2009,08,03,15,20,23.60
2009,08,03,15,21,23.70
2009,08,03,15,22,23.80
2009,08,03,15,23,23.80
2009,08,03,15,24,23.80
2009,08,03,15,25,23.70
2009,08,03,15,26,23.70
2009,08,03,15,27,23.70
2009,08,03,15,28,23.50
2009,08,03,15,29,23.30
2009,08,03,15,30,23.20
2009,08,03,15,31,23.10
2009,08,03,15,32,23.00
2009,08,03,15,33,23.00
2009,08,03,15,34,22.90
2009,08,03,15,35,22.80
2009,08,03,15,36,22.80
2009,08,03,15,37,22.90
2009,08,03,15,38,22.90
2009,08,03,15,39,22.90
2009,08,03,15,40,22.80
2009,08,03,15,41,22.80
2009,08,03,15,42,22.90
2009,08,03,15,43,23.00
2009,08,03,15,44,23.10
2009,08,03,15,45,23.30
2009,08,03,15,46,23.40
2009,08,03,15,47,23.40
2009,08,03,15,48,23.30
2009,08,03,15,49,23.20
2009,08,03,15,50,23.20
2009,08,03,15,51,23.30
2009,08,03,15,52,23.40
2009,08,03,15,53,23.50
2009,08,03,15,54,23.50
2009,08,03,15,55,23.60
2009,08,03,15,56,23.70
2009,08,03,15,57,23.70
2009,08,03,15,58,23.70
2009,08,03,15,59,23.70
2009,08,03,16,00,23.70
2009,08,03,16,01,23.70
2009,08,03,16,02,23.80
2009,08,03,16,03,23.90
2009,08,03,16,04,23.90
2009,08,03,16,05,23.90
2009,08,03,16,06,23.90
2009,08,03,16,07,23.90
2009,08,03,16,08,23.90
2009,08,03,16,09,23.90
2009,08,03,16,10,23.90
2009,08,03,16,11,23.90
2009,08,03,16,12,23.80
2009,08,03,16,13,23.70
2009,08,03,16,14,23.70
2009,08,03,16,15,23.70
2009,08,03,16,16,23.60
2009,08,03,16,17,23.60
2009,08,03,16,18,23.60
2009,08,03,16,19,23.70
2009,08,03,16,20,23.80
2009,08,03,16,21,23.90
2009,08,03,16,22,24.10
2009,08,03,16,23,24.10
2009,08,03,16,24,24.20
2009,08,03,16,25,24.10
2009,08,03,16,26,24.10
2009,08,03,16,27,24.00
2009,08,03,16,28,24.00
2009,08,03,16,29,24.00
2009,08,03,16,30,23.90
2009,08,03,16,31,23.90
2009,08,03,16,32,23.80
2009,08,03,16,33,23.80
2009,08,03,16,34,23.80
2009,08,03,16,35,23.80
2009,08,03,16,36,23.70
2009,08,03,16,37,23.70
2009,08,03,16,38,23.60
2009,08,03,16,39,23.60
2009,08,03,16,40,23.50
2009,08,03,16,41,23.40
2009,08,03,16,42,23.30
2009,08,03,16,43,23.30
2009,08,03,16,44,23.30
2009,08,03,16,45,23.30
2009,08,03,16,46,23.40
2009,08,03,16,47,23.50
2009,08,03,16,48,23.50
2009,08,03,16,49,23.50
2009,08,03,16,50,23.50
2009,08,03,16,51,23.50
2009,08,03,16,52,23.50
2009,08,03,16,53,23.50
2009,08,03,16,54,23.50
2009,08,03,16,55,23.50
2009,08,03,16,56,23.60
2009,08,03,16,57,23.60
2009,08,03,16,58,23.60
2009,08,03,16,59,23.60
2009,08,03,17,00,23.60
2009,08,03,17,01,23.70
2009,08,03,17,02,23.70
2009,08,03,17,03,23.80
2009,08,03,17,04,23.80
2009,08,03,17,05,23.90
2009,08,03,17,06,24.00
2009,08,03,17,07,24.00
2009,08,03,17,08,24.00
2009,08,03,17,09,24.10
2009,08,03,17,10,24.10
2009,08,03,17,11,24.10
2009,08,03,17,12,24.10
2009,08,03,17,13,24.20
2009,08,03,17,14,24.20
2009,08,03,17,15,24.20
2009,08,03,17,16,24.20
2009,08,03,17,17,24.20
2009,08,03,17,18,24.30
2009,08,03,17,19,24.40